Regional Weather Roundup
Issued by NWS Goodland, KS

Home | Current Version | Previous Version | Graphics & Text | Print | Product List | Glossary On
Versions: 1 2 3 4 5 6 7 8 9 10 11 12 13 14 15 16 17 18 19 20 21 22 23 24 25 26 27 28 29 30 31 32 33 34 35 36 37 38 39 40 41 42 43 44 45 46 47 48 49 50
000
ASUS43 KGLD 231559
RWRGLD

GOODLAND FORECAST AREA HOURLY WEATHER ROUNDUP
NATIONAL WEATHER SERVICE GOODLAND KS
1000 AM MDT MON OCT 23 2017

...OFFICIAL OBSERVATIONS...

CITY           SKY/WX    TMP DP  RH WIND       PRES   REMARKS
GOODLAND KS    CLOUDY    53  31  42 N25G36    30.32S
HILL CITY KS   CLOUDY    60  33  36 N32G43    30.25R
IMPERIAL NEB   CLOUDY    53  26  35 NW20G26   30.31R
MCCOOK NEB     PTSUNNY   56  33  42 NW18      30.27R
AKRON CO       CLOUDY    46  26  45 N24       30.39R
BURLINGTON CO  CLOUDY    50  28  42 N23G38    30.36R
LIMON CO       CLOUDY    43  28  55 N18G31    30.47R
$$

...UNOFFICIAL OBSERVATIONS...

CITY           SKY/WX    TMP DP  RH WIND       PRES   REMARKS
LENORA KS        N/A     53  32  45 NW10        N/A
NORTON KS      PTSUNNY   57  27  30 NW23G29   30.24R
SHARON SPRINGS   N/A     52  35  52 N16G30      N/A
TRENTON NEB      N/A     53  32  45 NW10        N/A
KIT CARSON CO    N/A     49  31  51 MISG        N/A
YUMA CO        FAIR      46  25  42 NW14G26   30.37R
$$




USA.gov is the U.S. government's official web portal to all federal, state and local government web resources and services.